TimeEST,TemperatureF,Dew PointF,Humidity,Sea Level PressureIn,VisibilityMPH,Wind Direction,Wind SpeedMPH,Gust SpeedMPH,PrecipitationIn,Events,Conditions,WindDirDegrees,DateUTC
12:53 AM,44.1,32.0,63,29.91,10.0,North,6.9,-,N/A,,Overcast,360,2012-11-07 05:53:00
1:53 AM,44.1,30.9,60,29.91,10.0,North,6.9,-,N/A,,Overcast,350,2012-11-07 06:53:00
2:40 AM,42.8,30.2,61,29.90,10.0,North,8.1,-,N/A,,Overcast,350,2012-11-07 07:40:00
2:53 AM,43.0,30.9,62,29.90,10.0,NNW,6.9,-,N/A,,Overcast,340,2012-11-07 07:53:00
3:45 AM,41.0,30.2,65,29.89,10.0,NNW,8.1,-,N/A,,Mostly Cloudy,330,2012-11-07 08:45:00
3:53 AM,39.9,30.9,70,29.89,10.0,NNW,9.2,-,N/A,,Scattered Clouds,340,2012-11-07 08:53:00
4:53 AM,39.0,30.9,73,29.89,10.0,NNW,8.1,-,N/A,,Clear,330,2012-11-07 09:53:00
5:53 AM,37.9,30.9,76,29.88,10.0,NNW,8.1,-,N/A,,Clear,340,2012-11-07 10:53:00
6:53 AM,37.0,30.9,79,29.91,10.0,NNW,5.8,-,N/A,,Clear,330,2012-11-07 11:53:00
7:53 AM,39.0,30.9,73,29.92,10.0,NNW,6.9,-,N/A,,Clear,330,2012-11-07 12:53:00
8:53 AM,44.1,32.0,63,29.93,10.0,NNW,5.8,-,N/A,,Scattered Clouds,330,2012-11-07 13:53:00
9:53 AM,48.0,34.0,58,29.93,10.0,NNW,6.9,-,N/A,,Clear,330,2012-11-07 14:53:00
10:53 AM,55.0,36.0,49,29.91,10.0,North,8.1,-,0.03,,Mostly Cloudy,350,2012-11-07 15:53:00
11:53 AM,57.0,36.0,45,29.88,10.0,North,3.5,-,N/A,,Mostly Cloudy,10,2012-11-07 16:53:00
12:53 PM,57.0,33.1,40,29.86,10.0,North,8.1,-,N/A,,Clear,350,2012-11-07 17:53:00
1:53 PM,59.0,33.1,38,29.84,10.0,North,5.8,-,N/A,,Mostly Cloudy,350,2012-11-07 18:53:00
2:53 PM,59.0,32.0,36,29.84,10.0,NNW,8.1,-,N/A,,Clear,330,2012-11-07 19:53:00
3:53 PM,59.0,32.0,36,29.85,10.0,NNW,9.2,-,N/A,,Clear,330,2012-11-07 20:53:00
4:32 PM,57.2,33.8,41,29.86,10.0,NNW,6.9,-,N/A,,Partly Cloudy,340,2012-11-07 21:32:00
4:53 PM,55.9,33.1,42,29.86,10.0,North,8.1,-,N/A,,Clear,360,2012-11-07 21:53:00
5:53 PM,51.1,34.0,52,29.88,10.0,Calm,Calm,-,N/A,,Clear,0,2012-11-07 22:53:00
6:53 PM,46.0,35.1,66,29.90,9.0,NNW,3.5,-,N/A,,Clear,330,2012-11-07 23:53:00
7:53 PM,43.0,34.0,71,29.91,8.0,NW,4.6,-,N/A,,Clear,320,2012-11-08 00:53:00
8:53 PM,41.0,33.1,73,29.93,8.0,NW,4.6,-,N/A,,Clear,320,2012-11-08 01:53:00
9:53 PM,39.9,32.0,73,29.94,9.0,Calm,Calm,-,N/A,,Clear,0,2012-11-08 02:53:00
10:53 PM,43.0,35.1,74,29.95,10.0,West,6.9,-,N/A,,Clear,280,2012-11-08 03:53:00
11:53 PM,43.0,35.1,74,29.96,10.0,WNW,5.8,-,N/A,,Clear,290,2012-11-08 04:53:00